HODOYOSHI-3

Last updated on Thu Oct 30 2025 00:02:31 GMT+0000 (Coordinated Universal Time)

1 40015U 14033F 25302.47852014 .00002548 00000+0 30484-3 0 9994 2 40015 97.6197 110.2485 0034143 36.3987 323.9540 14.84574462613385
UTC large
Height (km)
Speed (km/s)
/
Latitude / Longitude
Inclination (degrees)
Orbital Period (minutes)
Azimuth
Elevation
Range (km)
Doppler Factor

Next 0 passes for location: London (51.5072 / 0.1276)

Sorry there are no passes over London.